Overview Statistics Trail Chart Weather Telemetry Raw packets
 

This is the latest recevied weather packets stored in our database for station/object W0CHP-13. If no packets are shown the sender has not sent any weather packets the latest 10 day(s).

<< 41 42 43 44 45 46 47 >>
Time Temp. Humidity Pressure Rain* Wind** Luminosity Snow
1788070815 21.67° C 85% 1009.6 hPa 0 mm - 0 W/m² -
1788070217 22.22° C 84% 1009.6 hPa 0 mm - 0 W/m² -
1788069615 22.22° C 84% 1009.6 hPa 0 mm - 0 W/m² -
1788069018 22.22° C 83% 1009.6 hPa 0 mm - 0 W/m² -
1788068416 22.22° C 84% 1009.9 hPa 0 mm - 0 W/m² -
1788067817 22.22° C 83% 1009.9 hPa 0 mm - 0 W/m² -
1788067216 22.22° C 83% 1009.9 hPa 0 mm - 0 W/m² -
1788066618 22.22° C 82% 1009.9 hPa 0 mm - 0 W/m² -
1788066018 22.22° C 82% 1010 hPa 0 mm - 0 W/m² -
1788065417 22.22° C 81% 1010.3 hPa 0 mm - 0 W/m² -
1788064818 22.22° C 81% 1010.3 hPa 0 mm - 0 W/m² -
1788064219 22.22° C 81% 1010.6 hPa 0 mm - 0 W/m² -
1788063618 22.22° C 82% 1010.3 hPa 0 mm - 0 W/m² -
1788063016 22.78° C 81% 1010.6 hPa 0 mm - 0 W/m² -
1788062418 22.78° C 82% 1010.6 hPa 0 mm - 0 W/m² -
1788061817 22.78° C 81% 1010.5 hPa 0 mm - 0 W/m² -
1788061215 22.78° C 81% 1010.3 hPa 0 mm - 0 W/m² -
1788060617 22.78° C 80% 1010.6 hPa 0 mm - 0 W/m² -
1788060016 22.78° C 81% 1010.5 hPa 0 mm - 0 W/m² -
1788059417 22.78° C 80% 1010.6 hPa 0 mm - 0 W/m² -
1788058815 22.78° C 80% 1010.6 hPa 0 mm - 0 W/m² -
1788058218 22.78° C 78% 1010.6 hPa 0 mm - 0 W/m² -
1788057615 22.78° C 80% 1010.3 hPa 0 mm - 0 W/m² -
1788057018 22.78° C 77% 1010.6 hPa 0 mm - 0 W/m² -
1788056417 22.78° C 78% 1010.5 hPa 0 mm - 0 W/m² -

* Rain latest hour (hover to see other rain measurements)
** Current wind speed in m/s (hover to see current wind gust speed)